Vertical_Velocity
2 3 4 0 2 3 2 0 1 1 1 1 1 3 4 -4 -5 -3 -1 -1 -1 -1
1 -1 3 7 5 0 1 2 2 2 4 -1 -3 -2 5 -2 -1 -0 -2 -2 0 -1
2 2 3 4 1 1 1 0 3 0 6 13 10 4 -1 -0 -2 -2 -3 -1 -1 -0
2 6 4 5 7 7 6 2 -0 10 19 -3 -0 0 2 0 -3 -3 -1 -2 -1 -2
-0 0 6 11 6 6 4 43 6 1 -1 -1 4 -3 -3 -2 -1 -1 -1 -2 -3 -2
-3 -4 -3 -5 -6 4 10 4 -21 6 5 -10 0 -2 -5 -1 -0 -1 -2 -1 -2 -0
-1 -5 -2 -3 32 20 3 -1 -6 13 -1 -1 3 -3 -4 -1 -2 -2 -1 -2 -3 -1
0 3 6 1 5 -3 -11 -12 15 -1 1 5 -6 -5 -1 -2 -1 -1 -2 -2 -1 -2
2 3 2 -1 9 -4 -0 9 -0 0 -4 -5 -1 -1 0 -0 -1 -1 -3 -2 0 1
4 1 -1 1 -1 1 -0 -1 1 -2 -0 1 -0 -0 -2 -3 -3 -2 -1 1 1 2
1 -1 -3 3 -6 1 2 -1 -0 -1 -0 1 -1 -1 -2 -2 -2 -2 1 2 1 0
-3 -2 1 -0 6 -0 -1 -1 -0 -0 -1 -1 1 -2 2 -3 -4 -2 2 1 2 0
-0 -3 2 -1 -3 -2 -1 -1 0 0 -1 -1 -0 1 1 2 -3 -3 -6 1 1 3
-0 0 -3 -1 -1 -1 -0 0 -0 0 -2 -0 -2 1 2 4 -1 -8 -8 -2 -1 3
Height
3127 3127 3125 3125 3125 3125 3126 3125 3125 3124 3122 3121 3119 3116 3113 3111 3107 3106 3103 3099 3095 3091
3120 3119 3119 3119 3119 3119 3119 3119 3119 3117 3115 3113 3112 3109 3107 3104 3100 3097 3094 3091 3086 3082
3114 3113 3113 3112 3112 3113 3113 3113 3112 3111 3108 3105 3103 3103 3101 3097 3092 3090 3086 3082 3076 3073
3107 3107 3106 3107 3107 3108 3107 3106 3104 3102 3098 3097 3097 3095 3092 3089 3086 3082 3077 3072 3068 3066
3101 3101 3102 3102 3102 3101 3099 3096 3097 3096 3093 3091 3088 3087 3085 3082 3077 3072 3068 3064 3060 3057
3096 3095 3094 3092 3092 3092 3090 3087 3087 3087 3085 3083 3081 3079 3076 3073 3067 3063 3059 3055 3051 3047
3090 3089 3087 3086 3085 3082 3079 3076 3079 3079 3076 3075 3072 3069 3067 3062 3058 3054 3049 3046 3042 3038
3083 3082 3082 3080 3077 3077 3074 3076 3073 3072 3069 3066 3063 3059 3055 3052 3048 3044 3040 3036 3032 3027
3075 3075 3074 3073 3072 3070 3068 3067 3065 3063 3060 3057 3053 3049 3046 3043 3040 3035 3031 3026 3022 3016
3068 3067 3066 3066 3065 3064 3062 3059 3056 3053 3050 3048 3044 3041 3039 3035 3030 3025 3021 3016 3011 3005
3060 3059 3059 3059 3058 3056 3053 3051 3048 3045 3042 3039 3037 3034 3030 3025 3019 3014 3010 3005 2999 2993
3053 3054 3053 3051 3049 3048 3045 3043 3040 3037 3034 3030 3027 3023 3020 3014 3008 3003 2999 2993 2987 2981
3047 3046 3044 3043 3042 3040 3037 3034 3031 3028 3025 3022 3018 3014 3010 3004 2998 2992 2986 2980 2973 2966
3040 3039 3037 3035 3034 3031 3028 3025 3023 3020 3016 3013 3009 3004 2999 2994 2986 2979 2973 2965 2958 2952